| time (UTC) | temp F | wind direction | speed knots | gust knots | rain 1hr in | rain 24hr in | rain mn in | humidity % | barometer mb |
| 20260507103604 | 55 | 24 | 6.1 | 16.5 | 0.00 | 0.00 | 0.00 | 67 | 986.2 |
| 20260507103206 | 55 | 19 | 7.8 | 16.5 | 0.00 | 0.00 | 0.00 | 68 | 986.2 |
| 20260507102804 | 55 | 17 | 6.1 | 16.5 | 0.00 | 0.00 | 0.00 | 68 | 986.1 |
| 20260507102404 | 55 | 6 | 3.5 | 14.8 | 0.00 | 0.00 | 0.00 | 68 | 986.2 |
| 20260507102006 | 55 | 16 | 7.8 | 14.8 | 0.00 | 0.00 | 0.00 | 67 | 986.1 |
| 20260507101606 | 55 | 29 | 7.8 | 14.8 | 0.00 | 0.00 | 0.00 | 69 | 986.0 |
| 20260507101204 | 55 | 31 | 3.5 | 16.5 | 0.00 | 0.00 | 0.00 | 68 | 986.1 |
| 20260507100803 | 55 | 25 | 6.1 | 16.5 | 0.00 | 0.00 | 0.00 | 70 | 986.0 |
| 20260507100404 | 55 | 16 | 6.1 | 21.7 | 0.00 | 0.00 | 0.00 | 69 | 985.9 |
| 20260507095603 | 54 | 35 | 6.1 | 21.7 | 0.00 | 0.00 | 0.00 | 71 | 985.9 |
| 20260507095204 | 54 | 31 | 2.6 | 10.4 | 0.00 | 0.00 | 0.00 | 72 | 985.8 |
| 20260507094804 | 54 | 11 | 3.5 | 16.5 | 0.00 | 0.00 | 0.00 | 72 | 985.8 |
| 20260507094403 | 54 | 13 | 5.2 | 16.5 | 0.00 | 0.00 | 0.00 | 73 | 985.8 |
| 20260507094004 | 54 | 18 | 6.1 | 14.8 | 0.00 | 0.00 | 0.00 | 73 | 985.8 |
| 20260507093604 | 54 | 20 | 3.5 | 14.8 | 0.00 | 0.00 | 0.00 | 74 | 985.8 |
| 20260507092804 | 54 | 26 | 5.2 | 14.8 | 0.00 | 0.00 | 0.00 | 74 | 985.6 |
| 20260507092404 | 54 | 40 | 5.2 | 14.8 | 0.00 | 0.00 | 0.00 | 74 | 985.6 |
| 20260507092006 | 54 | 49 | 6.1 | 15.6 | 0.00 | 0.00 | 0.00 | 73 | 985.6 |
| 20260507091203 | 54 | 22 | 2.6 | 15.6 | 0.00 | 0.00 | 0.00 | 74 | 985.6 |
| 20260507090804 | 53 | 18 | 3.5 | 16.5 | 0.00 | 0.00 | 0.00 | 74 | 985.5 |
| 20260507090404 | 53 | 25 | 7.8 | 16.5 | 0.00 | 0.00 | 0.00 | 74 | 985.6 |
| 20260507085206 | 53 | 58 | 6.1 | 12.2 | 0.00 | 0.00 | 0.00 | 74 | 985.5 |
| 20260507084804 | 53 | 35 | 6.1 | 12.2 | 0.00 | 0.00 | 0.00 | 75 | 985.4 |
| 20260507084404 | 53 | 23 | 0.9 | 12.2 | 0.00 | 0.00 | 0.00 | 77 | 985.3 |
| 20260507084006 | 53 | 33 | 6.1 | 20.0 | 0.00 | 0.00 | 0.00 | 75 | 985.4 |
| 20260507083604 | 53 | 37 | 6.1 | 20.0 | 0.00 | 0.00 | 0.00 | 76 | 985.4 |
| 20260507083204 | 53 | 53 | 2.6 | 13.0 | 0.00 | 0.00 | 0.00 | 75 | 985.3 |
| 20260507082803 | 53 | 62 | 3.5 | 15.6 | 0.00 | 0.00 | 0.00 | 77 | 985.3 |
| 20260507081206 | 53 | 27 | 6.1 | 12.2 | 0.00 | 0.00 | 0.00 | 75 | 985.2 |
| 20260507080804 | 52 | 26 | 3.5 | 12.2 | 0.00 | 0.00 | 0.00 | 76 | 985.2 |
| 20260507080404 | 52 | 20 | 6.1 | 12.2 | 0.00 | 0.00 | 0.00 | 74 | 985.1 |
| 20260507080004 | 52 | 24 | 5.2 | 10.4 | 0.00 | 0.00 | 0.00 | 75 | 985.1 |
| 20260507075606 | 52 | 23 | 5.2 | 12.2 | 0.00 | 0.00 | 0.00 | 75 | 985.1 |
| 20260507075204 | 51 | 26 | 0.9 | 12.2 | 0.00 | 0.00 | 0.00 | 76 | 984.9 |
| 20260507074806 | 51 | 39 | 5.2 | 12.2 | 0.00 | 0.00 | 0.00 | 76 | 985.0 |
| 20260507074404 | 50 | 64 | 2.6 | 16.5 | 0.00 | 0.00 | 0.00 | 76 | 985.0 |
| 20260507074004 | 50 | 52 | 3.5 | 16.5 | 0.00 | 0.00 | 0.00 | 78 | 985.1 |
| 20260507073604 | 49 | 30 | 2.6 | 16.5 | 0.00 | 0.00 | 0.00 | 79 | 984.9 |
| 20260507073204 | 49 | 16 | 3.5 | 14.8 | 0.00 | 0.00 | 0.00 | 78 | 985.0 |
| 20260507072804 | 49 | 25 | 6.1 | 15.6 | 0.00 | 0.00 | 0.00 | 80 | 984.8 |
| 20260507072404 | 49 | 40 | 5.2 | 15.6 | 0.00 | 0.00 | 0.00 | 79 | 984.8 |
| 20260507072004 | 49 | 41 | 3.5 | 15.6 | 0.00 | 0.00 | 0.00 | 79 | 984.8 |
| 20260507071604 | 49 | 60 | 6.1 | 15.6 | 0.00 | 0.00 | 0.00 | 79 | 984.7 |
| 20260507071204 | 49 | 56 | 6.1 | 15.6 | 0.00 | 0.00 | 0.00 | 80 | 984.9 |
| 20260507070804 | 49 | 45 | 5.2 | 16.5 | 0.00 | 0.00 | 0.00 | 79 | 984.9 |
| 20260507070406 | 49 | 38 | 6.1 | 16.5 | 0.00 | 0.00 | 0.00 | 81 | 984.7 |
| 20260507070009 | 49 | 40 | 7.8 | 10.4 | 0.00 | 0.00 | 0.00 | 81 | 984.8 |
| 20260507065204 | 49 | 21 | 2.6 | 9.6 | 0.00 | 0.00 | 0.00 | 81 | 984.7 |
| 20260507064804 | 49 | 47 | 3.5 | 12.2 | 0.00 | 0.00 | 0.00 | 81 | 984.6 |
| 20260507064404 | 49 | 40 | 5.2 | 16.5 | 0.00 | 0.00 | 0.00 | 82 | 984.6 |
| 20260507064004 | 48 | 30 | 6.1 | 16.5 | 0.00 | 0.00 | 0.00 | 83 | 984.6 |
| 20260507063604 | 48 | 40 | 5.2 | 10.4 | 0.00 | 0.00 | 0.00 | 84 | 984.7 |
| 20260507062404 | 46 | 26 | 2.6 | 8.7 | 0.00 | 0.00 | 0.00 | 86 | 984.5 |
| 20260507062004 | 46 | 39 | 2.6 | 8.7 | 0.00 | 0.00 | 0.00 | 87 | 984.3 |
| 20260507061203 | 45 | 32 | 2.6 | 10.4 | 0.00 | 0.00 | 0.00 | 90 | 984.4 |
| 20260507060806 | 45 | 15 | 3.5 | 10.4 | 0.00 | 0.00 | 0.00 | 90 | 984.3 |
| 20260507060404 | 45 | 22 | 0.9 | 8.7 | 0.00 | 0.00 | 0.00 | 90 | 984.3 |
| 20260507060004 | 45 | 33 | 0.9 | 8.7 | 0.00 | 0.00 | 0.00 | 90 | 984.4 |
| 20260507055604 | 45 | 53 | 3.5 | 8.7 | 0.00 | 0.00 | 0.00 | 90 | 984.2 |
| 20260507055204 | 45 | 42 | 2.6 | 9.6 | 0.00 | 0.00 | 0.00 | 90 | 984.1 |
| 20260507054404 | 45 | 37 | 5.2 | 9.6 | 0.00 | 0.00 | 0.00 | 90 | 984.0 |
| 20260507054004 | 45 | 52 | 0.0 | 12.2 | 0.00 | 0.00 | 0.00 | 90 | 984.0 |
| 20260507053606 | 45 | 45 | 2.6 | 12.2 | 0.00 | 0.00 | 0.00 | 90 | 984.0 |
| 20260507053204 | 45 | 32 | 2.6 | 12.2 | 0.00 | 0.00 | 0.00 | 90 | 983.9 |
| 20260507052407 | 45 | 23 | 0.9 | 9.6 | 0.00 | 0.00 | 0.00 | 91 | 983.8 |
| 20260507052003 | 45 | 42 | 5.2 | 10.4 | 0.00 | 0.00 | 0.00 | 91 | 983.9 |
| 20260507051604 | 45 | 39 | 2.6 | 10.4 | 0.00 | 0.00 | 0.00 | 91 | 983.9 |
| 20260507051206 | 44 | 54 | 3.5 | 9.6 | 0.00 | 0.00 | 0.00 | 91 | 983.7 |
| 20260507050804 | 44 | 70 | 5.2 | 9.6 | 0.00 | 0.00 | 0.00 | 91 | 983.8 |
| 20260507050404 | 44 | 74 | 3.5 | 9.6 | 0.00 | 0.00 | 0.00 | 92 | 983.5 |
| 20260507050005 | 44 | 46 | 0.9 | 9.6 | 0.00 | 0.00 | 0.00 | 92 | 983.5 |
| 20260507045606 | 44 | 27 | 0.9 | 8.7 | 0.00 | 0.00 | 0.00 | 92 | 983.5 |
| 20260507044804 | 44 | 29 | 3.5 | 8.7 | 0.00 | 0.00 | 0.00 | 92 | 983.4 |
| 20260507043604 | 44 | 54 | 0.9 | 13.0 | 0.00 | 0.00 | 0.00 | 93 | 983.3 |
| 20260507043204 | 44 | 57 | 2.6 | 13.0 | 0.00 | 0.00 | 0.00 | 92 | 983.1 |
| 20260507042804 | 44 | 41 | 6.1 | 13.0 | 0.00 | 0.00 | 0.00 | 93 | 983.2 |
| 20260507042404 | 44 | 51 | 0.9 | 8.7 | 0.00 | 0.00 | 0.00 | 93 | 983.1 |
| 20260507042004 | 44 | 41 | 3.5 | 8.7 | 0.00 | 0.00 | 0.00 | 93 | 983.0 |
| 20260507041604 | 44 | 51 | 0.9 | 7.0 | 0.00 | 0.00 | 0.00 | 93 | 983.2 |
| 20260507041203 | 44 | 67 | 0.0 | 10.4 | 0.00 | 0.00 | 0.00 | 93 | 983.2 |
| 20260507040806 | 44 | 81 | 0.9 | 10.4 | 0.00 | 0.00 | 0.00 | 93 | 983.0 |
| 20260507040404 | 44 | 86 | 3.5 | 12.2 | 0.00 | 0.00 | 0.00 | 93 | 983.1 |
| 20260507035204 | 44 | 51 | 0.9 | 9.6 | 0.00 | 0.00 | 0.00 | 94 | 982.9 |
| 20260507034804 | 44 | 45 | 3.5 | 9.6 | 0.00 | 0.00 | 0.00 | 94 | 982.9 |
| 20260507034404 | 44 | 18 | 0.0 | 10.4 | 0.00 | 0.00 | 0.00 | 94 | 982.9 |
| 20260507034004 | 44 | 14 | 3.5 | 10.4 | 0.00 | 0.00 | 0.00 | 94 | 982.9 |
| 20260507033607 | 44 | 21 | 3.5 | 14.8 | 0.00 | 0.00 | 0.00 | 94 | 982.9 |
| 20260507033204 | 44 | 29 | 2.6 | 14.8 | 0.00 | 0.00 | 0.00 | 94 | 982.9 |
| 20260507032804 | 44 | 36 | 0.9 | 12.2 | 0.00 | 0.00 | 0.00 | 94 | 982.8 |
| 20260507032404 | 44 | 41 | 2.6 | 12.2 | 0.00 | 0.00 | 0.00 | 94 | 982.9 |
| 20260507032005 | 44 | 36 | 2.6 | 18.2 | 0.00 | 0.00 | 0.00 | 94 | 982.9 |
| 20260507031604 | 44 | 37 | 5.2 | 18.2 | 0.00 | 0.00 | 0.00 | 94 | 982.9 |
| 20260507031204 | 44 | 64 | 2.6 | 18.2 | 0.00 | 0.00 | 0.00 | 95 | 982.7 |
| 20260507030805 | 44 | 57 | 2.6 | 12.2 | 0.00 | 0.00 | 0.00 | 95 | 982.7 |
| 20260507030404 | 44 | 33 | 3.5 | 12.2 | 0.00 | 0.00 | 0.00 | 95 | 982.6 |
| 20260507025604 | 44 | 10 | 2.6 | 9.6 | 0.00 | 0.00 | 0.00 | 95 | 982.6 |
| 20260507025206 | 44 | 26 | 3.5 | 12.2 | 0.00 | 0.00 | 0.00 | 95 | 982.7 |
| 20260507024804 | 44 | 32 | 5.2 | 15.6 | 0.00 | 0.00 | 0.00 | 95 | 982.7 |
| 20260507024404 | 44 | 27 | 5.2 | 15.6 | 0.00 | 0.00 | 0.00 | 95 | 982.4 |
| 20260507023604 | 44 | 16 | 3.5 | 15.6 | 0.00 | 0.00 | 0.00 | 95 | 982.5 |
| 20260507023203 | 44 | 36 | 0.0 | 9.6 | 0.00 | 0.00 | 0.00 | 96 | 982.3 |
| 20260507022807 | 44 | 46 | 3.5 | 9.6 | 0.00 | 0.00 | 0.00 | 96 | 982.4 |
| 20260507022404 | 44 | 37 | 3.5 | 9.6 | 0.00 | 0.00 | 0.00 | 96 | 982.4 |
| 20260507022004 | 44 | 39 | 5.2 | 8.7 | 0.00 | 0.00 | 0.00 | 96 | 982.6 |
| 20260507021604 | 44 | 38 | 3.5 | 8.7 | 0.00 | 0.00 | 0.00 | 96 | 982.5 |
| 20260507021206 | 44 | 46 | 0.0 | 10.4 | 0.00 | 0.00 | 0.00 | 96 | 982.4 |
| 20260507020804 | 44 | 37 | 2.6 | 10.4 | 0.00 | 0.00 | 0.00 | 96 | 982.4 |
| 20260507020404 | 44 | 26 | 0.9 | 10.4 | 0.00 | 0.00 | 0.00 | 96 | 982.4 |
| 20260507015603 | 44 | 35 | 2.6 | 8.7 | 0.00 | 0.00 | 0.00 | 96 | 982.4 |
| 20260507015204 | 44 | 62 | 2.6 | 8.7 | 0.00 | 0.00 | 0.00 | 96 | 982.2 |
| 20260507014804 | 44 | 58 | 3.5 | 8.7 | 0.00 | 0.00 | 0.00 | 96 | 982.2 |
| 20260507014403 | 44 | 33 | 2.6 | 7.0 | 0.00 | 0.00 | 0.00 | 96 | 982.2 |
| 20260507014004 | 44 | 21 | 0.9 | 7.0 | 0.00 | 0.00 | 0.00 | 96 | 982.2 |
| 20260507013604 | 44 | 24 | 2.6 | 9.6 | 0.00 | 0.00 | 0.00 | 96 | 982.2 |
| 20260507013204 | 44 | 10 | 2.6 | 9.6 | 0.00 | 0.00 | 0.00 | 96 | 982.2 |
| 20260507012806 | 44 | 6 | 6.1 | 9.6 | 0.00 | 0.00 | 0.00 | 96 | 982.1 |
| 20260507012004 | 44 | 45 | 2.6 | 13.0 | 0.00 | 0.00 | 0.00 | 96 | 981.9 |
| 20260507011604 | 44 | 38 | 5.2 | 13.0 | 0.00 | 0.00 | 0.00 | 95 | 982.1 |
| 20260507011203 | 44 | 27 | 0.9 | 14.8 | 0.00 | 0.00 | 0.00 | 95 | 982.0 |
| 20260507010004 | 44 | 13 | 2.6 | 9.6 | 0.00 | 0.00 | 0.00 | 95 | 982.1 |
| 20260507005603 | 44 | 13 | 0.0 | 9.6 | 0.00 | 0.00 | 0.00 | 95 | 982.2 |
| 20260507005204 | 44 | 12 | 2.6 | 7.0 | 0.00 | 0.00 | 0.00 | 95 | 982.2 |
| 20260507004806 | 44 | 19 | 0.9 | 10.4 | 0.00 | 0.00 | 0.00 | 95 | 982.1 |
| 20260507004403 | 44 | 32 | 2.6 | 10.4 | 0.00 | 0.00 | 0.00 | 95 | 982.1 |
| 20260507003207 | 44 | 37 | 0.9 | 12.2 | 0.00 | 0.00 | 0.00 | 95 | 982.2 |
| 20260507002804 | 44 | 24 | 3.5 | 12.2 | 0.00 | 0.00 | 0.00 | 95 | 982.1 |
| 20260507002404 | 44 | 25 | 0.9 | 12.2 | 0.00 | 0.00 | 0.00 | 95 | 982.1 |
| 20260507002008 | 44 | 22 | 2.6 | 12.2 | 0.00 | 0.00 | 0.00 | 95 | 982.0 |
| 20260507001604 | 44 | 9 | 6.1 | 12.2 | 0.00 | 0.00 | 0.00 | 95 | 982.1 |
| 20260507001203 | 44 | 3 | 6.1 | 10.4 | 0.00 | 0.00 | 0.00 | 95 | 982.2 |
| 20260507000804 | 44 | 1 | 3.5 | 8.7 | 0.00 | 0.00 | 0.00 | 96 | 982.0 |
| 20260507000405 | 44 | 13 | 3.5 | 8.7 | 0.00 | 0.00 | 0.00 | 96 | 982.0 |
| 20260507000005 | 44 | 25 | 2.6 | 8.7 | 0.00 | 0.00 | 0.00 | 96 | 982.0 |
| 20260506235604 | 44 | 29 | 2.6 | 8.7 | 0.00 | 0.00 | 0.00 | 96 | 981.9 |
| 20260506234804 | 44 | 56 | 2.6 | 9.6 | 0.00 | 0.00 | 0.00 | 95 | 981.9 |
| 20260506234404 | 44 | 62 | 3.5 | 10.4 | 0.00 | 0.00 | 0.00 | 95 | 981.9 |
| 20260506234006 | 44 | 60 | 0.9 | 10.4 | 0.00 | 0.00 | 0.00 | 95 | 982.1 |
| 20260506233204 | 44 | 56 | 2.6 | 9.6 | 0.00 | 0.00 | 0.00 | 96 | 981.9 |
| 20260506232806 | 44 | 35 | 0.0 | 8.7 | 0.00 | 0.00 | 0.00 | 96 | 981.9 |
| 20260506232403 | 44 | 35 | 0.9 | 8.7 | 0.00 | 0.00 | 0.00 | 96 | 981.9 |
| 20260506232004 | 44 | 44 | 2.6 | 8.7 | 0.00 | 0.00 | 0.00 | 96 | 981.8 |
| 20260506231604 | 44 | 51 | 3.5 | 8.7 | 0.00 | 0.00 | 0.00 | 96 | 981.9 |
| 20260506231206 | 44 | 28 | 2.6 | 8.7 | 0.00 | 0.00 | 0.00 | 96 | 981.9 |
| 20260506230804 | 44 | 26 | 0.9 | 7.0 | 0.00 | 0.00 | 0.00 | 96 | 981.9 |
| 20260506230004 | 44 | 38 | 0.9 | 13.0 | 0.00 | 0.00 | 0.00 | 95 | 981.8 |
| 20260506225604 | 45 | 43 | 0.0 | 13.0 | 0.00 | 0.00 | 0.00 | 95 | 981.8 |
| 20260506225206 | 45 | 66 | 3.5 | 13.0 | 0.00 | 0.00 | 0.00 | 95 | 981.6 |
| 20260506224803 | 45 | 53 | 0.9 | 13.0 | 0.00 | 0.00 | 0.00 | 95 | 981.6 |
| 20260506224404 | 45 | 51 | 0.9 | 13.0 | 0.00 | 0.00 | 0.00 | 94 | 981.5 |
| 20260506224006 | 45 | 48 | 5.2 | 13.0 | 0.00 | 0.00 | 0.00 | 94 | 981.6 |
| 20260506223204 | 45 | 43 | 3.5 | 10.4 | 0.00 | 0.00 | 0.00 | 94 | 981.4 |
| 20260506222806 | 45 | 29 | 0.9 | 7.0 | 0.00 | 0.00 | 0.00 | 94 | 981.4 |
| 20260506222404 | 45 | 18 | 0.9 | 7.0 | 0.00 | 0.00 | 0.00 | 94 | 981.4 |
| 20260506222004 | 45 | 21 | 0.0 | 8.7 | 0.00 | 0.00 | 0.00 | 94 | 981.5 |
| 20260506221206 | 46 | 25 | 3.5 | 12.2 | 0.00 | 0.00 | 0.00 | 93 | 981.4 |
| 20260506220804 | 46 | 31 | 0.9 | 12.2 | 0.00 | 0.00 | 0.00 | 93 | 981.4 |
| 20260506220404 | 46 | 44 | 2.6 | 7.0 | 0.00 | 0.00 | 0.00 | 93 | 981.3 |
| 20260506220005 | 46 | 64 | 0.9 | 9.6 | 0.00 | 0.00 | 0.00 | 93 | 981.3 |
| 20260506215604 | 46 | 56 | 2.6 | 10.4 | 0.00 | 0.00 | 0.00 | 92 | 981.3 |
| 20260506215204 | 46 | 58 | 3.5 | 12.2 | 0.00 | 0.00 | 0.00 | 92 | 981.3 |
| 20260506214804 | 46 | 65 | 2.6 | 12.2 | 0.00 | 0.00 | 0.00 | 92 | 981.2 |
| 20260506214404 | 46 | 48 | 6.1 | 12.2 | 0.00 | 0.00 | 0.00 | 92 | 981.3 |
| 20260506214006 | 46 | 30 | 0.0 | 10.4 | 0.00 | 0.00 | 0.00 | 92 | 981.4 |
| 20260506213604 | 46 | 41 | 5.2 | 12.2 | 0.00 | 0.00 | 0.00 | 92 | 981.2 |
| 20260506213203 | 46 | 51 | 6.1 | 12.2 | 0.00 | 0.00 | 0.00 | 92 | 981.2 |
| 20260506212404 | 46 | 54 | 3.5 | 19.1 | 0.00 | 0.00 | 0.00 | 92 | 981.3 |
| 20260506212003 | 46 | 39 | 5.2 | 19.1 | 0.00 | 0.00 | 0.00 | 91 | 981.3 |
| 20260506211604 | 46 | 52 | 5.2 | 13.0 | 0.00 | 0.00 | 0.00 | 91 | 981.3 |
| 20260506211204 | 46 | 71 | 5.2 | 12.2 | 0.00 | 0.00 | 0.00 | 92 | 981.2 |
| 20260506210803 | 46 | 73 | 3.5 | 10.4 | 0.00 | 0.00 | 0.00 | 92 | 981.1 |
| 20260506210004 | 46 | 38 | 2.6 | 10.4 | 0.00 | 0.00 | 0.00 | 92 | 981.1 |
| 20260506205604 | 47 | 56 | 3.5 | 12.2 | 0.00 | 0.00 | 0.00 | 92 | 981.0 |
| 20260506204806 | 47 | 39 | 6.1 | 13.0 | 0.00 | 0.00 | 0.00 | 92 | 981.0 |
| 20260506204404 | 47 | 41 | 5.2 | 15.6 | 0.00 | 0.00 | 0.00 | 92 | 981.1 |
| 20260506204004 | 47 | 61 | 3.5 | 15.6 | 0.00 | 0.00 | 0.00 | 92 | 981.1 |
| 20260506203606 | 47 | 60 | 5.2 | 15.6 | 0.00 | 0.00 | 0.00 | 92 | 981.0 |
| 20260506203204 | 47 | 40 | 6.1 | 15.6 | 0.00 | 0.00 | 0.00 | 92 | 981.1 |
| 20260506202406 | 47 | 38 | 3.5 | 16.5 | 0.00 | 0.00 | 0.00 | 92 | 981.1 |
| 20260506202003 | 47 | 49 | 2.6 | 15.6 | 0.00 | 0.00 | 0.00 | 92 | 981.2 |
| 20260506201607 | 47 | 53 | 3.5 | 15.6 | 0.00 | 0.00 | 0.00 | 92 | 981.1 |
| 20260506201204 | 47 | 69 | 6.1 | 15.6 | 0.00 | 0.00 | 0.00 | 92 | 981.0 |
| 20260506200803 | 47 | 67 | 5.2 | 12.2 | 0.00 | 0.00 | 0.00 | 92 | 981.0 |
| 20260506200004 | 47 | 39 | 2.6 | 14.8 | 0.00 | 0.00 | 0.00 | 92 | 980.8 |
| 20260506195604 | 47 | 45 | 2.6 | 14.8 | 0.00 | 0.00 | 0.00 | 92 | 980.8 |
| 20260506195204 | 47 | 43 | 6.1 | 14.8 | 0.00 | 0.00 | 0.00 | 92 | 980.6 |
| 20260506194807 | 47 | 51 | 3.5 | 12.2 | 0.00 | 0.00 | 0.00 | 92 | 980.4 |
| 20260506194404 | 47 | 29 | 3.5 | 18.2 | 0.00 | 0.00 | 0.00 | 92 | 980.5 |
| 20260506194004 | 47 | 36 | 2.6 | 18.2 | 0.00 | 0.00 | 0.00 | 91 | 980.6 |
| 20260506192804 | 47 | 27 | 5.2 | 19.1 | 0.00 | 0.00 | 0.00 | 91 | 980.7 |
| 20260506192404 | 47 | 51 | 8.7 | 19.1 | 0.00 | 0.00 | 0.00 | 91 | 980.6 |
| 20260506192004 | 48 | 51 | 3.5 | 18.2 | 0.00 | 0.00 | 0.00 | 92 | 980.7 |
| 20260506191605 | 48 | 30 | 5.2 | 15.6 | 0.00 | 0.00 | 0.00 | 92 | 980.6 |
| 20260506191204 | 48 | 9 | 3.5 | 16.5 | 0.00 | 0.00 | 0.00 | 92 | 980.6 |
| 20260506190804 | 48 | 22 | 6.1 | 16.5 | 0.00 | 0.00 | 0.00 | 92 | 980.6 |
| 20260506190405 | 48 | 22 | 2.6 | 16.5 | 0.00 | 0.00 | 0.00 | 92 | 980.5 |
| 20260506190005 | 48 | 35 | 5.2 | 13.0 | 0.00 | 0.00 | 0.00 | 92 | 980.5 |
| 20260506185604 | 48 | 44 | 6.1 | 13.0 | 0.00 | 0.00 | 0.00 | 92 | 980.4 |
| 20260506184404 | 48 | 49 | 5.2 | 20.0 | 0.00 | 0.00 | 0.00 | 92 | 980.2 |
| 20260506183604 | 49 | 41 | 5.2 | 19.1 | 0.00 | 0.00 | 0.00 | 92 | 979.9 |
| 20260506183204 | 49 | 35 | 3.5 | 18.2 | 0.00 | 0.00 | 0.00 | 92 | 979.9 |
| 20260506182804 | 49 | 27 | 8.7 | 18.2 | 0.00 | 0.00 | 0.00 | 92 | 980.1 |
| 20260506182404 | 49 | 23 | 7.8 | 14.8 | 0.00 | 0.00 | 0.00 | 92 | 979.9 |
| 20260506182006 | 49 | 28 | 3.5 | 15.6 | 0.00 | 0.00 | 0.00 | 92 | 979.9 |
| 20260506181603 | 49 | 51 | 2.6 | 15.6 | 0.00 | 0.00 | 0.00 | 92 | 979.7 |
| 20260506180806 | 50 | 59 | 7.8 | 14.8 | 0.00 | 0.00 | 0.00 | 91 | 979.8 |
| 20260506180404 | 50 | 53 | 2.6 | 14.8 | 0.00 | 0.00 | 0.00 | 92 | 979.7 |
| 20260506180005 | 50 | 46 | 3.5 | 15.6 | 0.00 | 0.00 | 0.00 | 91 | 979.7 |
| 20260506175604 | 50 | 53 | 8.7 | 15.6 | 0.00 | 0.00 | 0.00 | 91 | 979.7 |
| 20260506174804 | 50 | 45 | 2.6 | 15.6 | 0.00 | 0.00 | 0.00 | 90 | 979.5 |
| 20260506174404 | 50 | 29 | 5.2 | 20.0 | 0.00 | 0.00 | 0.00 | 90 | 979.5 |
| 20260506173603 | 51 | 24 | 6.1 | 20.0 | 0.00 | 0.00 | 0.00 | 89 | 979.7 |
| 20260506173204 | 51 | 36 | 5.2 | 15.6 | 0.00 | 0.00 | 0.00 | 88 | 979.6 |
| 20260506172404 | 51 | 36 | 5.2 | 21.7 | 0.00 | 0.00 | 0.00 | 87 | 979.3 |
| 20260506172004 | 51 | 37 | 8.7 | 21.7 | 0.00 | 0.00 | 0.00 | 87 | 979.3 |
| 20260506171204 | 51 | 21 | 5.2 | 12.2 | 0.00 | 0.00 | 0.00 | 88 | 979.3 |
| 20260506170804 | 51 | 15 | 3.5 | 13.0 | 0.00 | 0.00 | 0.00 | 88 | 979.2 |
| 20260506170404 | 51 | 25 | 3.5 | 13.0 | 0.00 | 0.00 | 0.00 | 87 | 979.1 |
| 20260506170004 | 51 | 28 | 2.6 | 13.0 | 0.00 | 0.00 | 0.00 | 87 | 979.2 |
| 20260506165604 | 51 | 18 | 2.6 | 13.0 | 0.00 | 0.00 | 0.00 | 87 | 979.1 |
| 20260506165204 | 51 | 1 | 3.5 | 6.1 | 0.00 | 0.00 | 0.00 | 88 | 979.1 |
| 20260506164806 | 51 | 6 | 3.5 | 6.1 | 0.00 | 0.00 | 0.00 | 88 | 979.2 |
| 20260506164404 | 51 | 15 | 3.5 | 10.4 | 0.00 | 0.00 | 0.00 | 88 | 979.1 |
| 20260506164004 | 51 | 23 | 0.0 | 10.4 | 0.00 | 0.00 | 0.00 | 88 | 979.2 |
| 20260506163606 | 51 | 12 | 2.6 | 14.8 | 0.00 | 0.00 | 0.00 | 88 | 979.1 |
| 20260506163203 | 51 | 17 | 5.2 | 14.8 | 0.00 | 0.00 | 0.00 | 89 | 979.1 |
| 20260506162804 | 51 | 24 | 5.2 | 14.8 | 0.00 | 0.00 | 0.00 | 89 | 979.1 |
| 20260506162404 | 51 | 38 | 5.2 | 19.1 | 0.00 | 0.00 | 0.00 | 89 | 979.2 |
| 20260506161606 | 51 | 24 | 3.5 | 16.5 | 0.00 | 0.00 | 0.00 | 89 | 979.1 |
| 20260506161204 | 52 | 16 | 5.2 | 16.5 | 0.00 | 0.00 | 0.00 | 90 | 979.1 |
| 20260506160403 | 52 | 17 | 8.7 | 16.5 | 0.00 | 0.00 | 0.00 | 89 | 979.0 |
| 20260506160004 | 52 | 25 | 5.2 | 18.2 | 0.00 | 0.00 | 0.00 | 90 | 978.9 |
| 20260506155604 | 52 | 6 | 3.5 | 18.2 | 0.00 | 0.00 | 0.00 | 90 | 978.9 |
| 20260506155204 | 52 | 19 | 5.2 | 18.2 | 0.00 | 0.00 | 0.00 | 90 | 979.1 |
| 20260506154806 | 52 | 20 | 6.1 | 18.2 | 0.00 | 0.00 | 0.00 | 90 | 978.9 |
| 20260506154404 | 52 | 43 | 8.7 | 18.2 | 0.00 | 0.00 | 0.00 | 89 | 979.1 |
| 20260506154004 | 52 | 37 | 6.1 | 13.0 | 0.00 | 0.00 | 0.00 | 89 | 979.0 |
| 20260506153604 | 52 | 32 | 3.5 | 13.0 | 0.00 | 0.00 | 0.00 | 89 | 979.1 |
| 20260506153204 | 52 | 16 | 2.6 | 19.1 | 0.00 | 0.00 | 0.00 | 90 | 979.0 |
| 20260506152804 | 52 | 21 | 7.8 | 19.1 | 0.00 | 0.00 | 0.00 | 89 | 979.0 |
| 20260506152404 | 52 | 28 | 3.5 | 19.1 | 0.00 | 0.00 | 0.00 | 89 | 979.1 |
| 20260506152006 | 52 | 26 | 3.5 | 13.0 | 0.00 | 0.00 | 0.00 | 89 | 979.1 |
| 20260506151204 | 53 | 46 | 3.5 | 13.0 | 0.00 | 0.00 | 0.00 | 89 | 979.1 |
| 20260506150806 | 52 | 25 | 3.5 | 9.6 | 0.00 | 0.00 | 0.00 | 89 | 979.2 |
| 20260506150403 | 52 | 18 | 3.5 | 10.4 | 0.00 | 0.00 | 0.00 | 89 | 979.2 |
| 20260506150004 | 52 | 15 | 2.6 | 14.8 | 0.00 | 0.00 | 0.00 | 89 | 979.2 |
| 20260506145604 | 52 | 6 | 5.2 | 14.8 | 0.00 | 0.00 | 0.00 | 89 | 979.2 |
| 20260506145206 | 52 | 6 | 3.5 | 14.8 | 0.00 | 0.00 | 0.00 | 88 | 979.2 |
| 20260506144804 | 52 | 2 | 7.8 | 14.8 | 0.00 | 0.00 | 0.00 | 88 | 979.2 |
| 20260506144404 | 52 | 10 | 5.2 | 14.8 | 0.00 | 0.00 | 0.00 | 88 | 979.0 |
| 20260506144006 | 52 | 9 | 3.5 | 15.6 | 0.00 | 0.00 | 0.00 | 88 | 979.1 |
| 20260506143604 | 53 | 9 | 5.2 | 16.5 | 0.00 | 0.00 | 0.00 | 88 | 979.2 |
| 20260506143204 | 53 | 9 | 7.8 | 16.5 | 0.00 | 0.00 | 0.00 | 89 | 979.0 |
| 20260506142804 | 53 | 11 | 6.1 | 10.4 | 0.00 | 0.00 | 0.00 | 87 | 979.1 |
| 20260506142404 | 53 | 3 | 3.5 | 14.8 | 0.00 | 0.00 | 0.00 | 87 | 979.2 |
| 20260506142004 | 53 | 9 | 3.5 | 14.8 | 0.00 | 0.00 | 0.00 | 87 | 979.1 |
| 20260506141204 | 53 | 12 | 6.1 | 14.8 | 0.00 | 0.00 | 0.00 | 87 | 979.2 |
| 20260506140804 | 53 | 8 | 5.2 | 13.0 | 0.00 | 0.00 | 0.00 | 87 | 979.1 |
| 20260506140404 | 53 | 42 | 5.2 | 14.8 | 0.00 | 0.00 | 0.00 | 87 | 979.1 |
| 20260506140004 | 53 | 46 | 5.2 | 14.8 | 0.00 | 0.00 | 0.00 | 87 | 979.2 |
| 20260506135607 | 53 | 46 | 6.1 | 13.0 | 0.00 | 0.00 | 0.00 | 87 | 979.1 |
| 20260506135204 | 53 | 41 | 3.5 | 10.4 | 0.00 | 0.00 | 0.00 | 87 | 979.2 |
| 20260506134806 | 53 | 48 | 0.9 | 14.8 | 0.00 | 0.00 | 0.00 | 86 | 979.0 |
| 20260506134404 | 53 | 33 | 0.9 | 14.8 | 0.00 | 0.00 | 0.00 | 86 | 979.1 |
| 20260506134006 | 53 | 40 | 7.8 | 15.6 | 0.00 | 0.00 | 0.00 | 87 | 979.1 |
| 20260506132404 | 53 | 46 | 2.6 | 16.5 | 0.00 | 0.00 | 0.00 | 86 | 979.0 |
| 20260506132006 | 53 | 18 | 2.6 | 19.1 | 0.00 | 0.00 | 0.00 | 85 | 979.0 |
| 20260506131603 | 53 | 5 | 7.8 | 19.1 | 0.00 | 0.00 | 0.00 | 85 | 979.0 |
| 20260506131204 | 53 | 5 | 5.2 | 15.6 | 0.00 | 0.00 | 0.00 | 85 | 979.0 |
| 20260506130406 | 53 | 24 | 2.6 | 18.2 | 0.00 | 0.00 | 0.00 | 85 | 978.9 |
| 20260506130005 | 53 | 52 | 6.1 | 18.2 | 0.00 | 0.00 | 0.00 | 85 | 979.0 |
| 20260506125604 | 53 | 54 | 8.7 | 14.8 | 0.00 | 0.00 | 0.00 | 84 | 978.9 |
| 20260506125204 | 54 | 50 | 6.1 | 15.6 | 0.00 | 0.00 | 0.00 | 84 | 978.9 |
| 20260506124806 | 54 | 33 | 2.6 | 15.6 | 0.00 | 0.00 | 0.00 | 85 | 978.9 |
| 20260506124404 | 53 | 26 | 7.8 | 15.6 | 0.00 | 0.00 | 0.00 | 84 | 978.7 |
| 20260506124004 | 53 | 9 | 7.8 | 13.0 | 0.00 | 0.00 | 0.00 | 84 | 978.7 |
| 20260506123204 | 53 | 15 | 5.2 | 10.4 | 0.00 | 0.00 | 0.00 | 85 | 978.6 |
| 20260506122803 | 53 | 15 | 2.6 | 12.2 | 0.00 | 0.00 | 0.00 | 85 | 978.7 |
| 20260506122004 | 53 | 22 | 5.2 | 12.2 | 0.00 | 0.00 | 0.00 | 85 | 978.7 |
| 20260506121604 | 53 | 20 | 5.2 | 15.6 | 0.00 | 0.00 | 0.00 | 85 | 978.7 |
| 20260506121204 | 53 | 12 | 2.6 | 21.7 | 0.00 | 0.00 | 0.00 | 86 | 978.7 |
| 20260506120804 | 53 | 16 | 5.2 | 21.7 | 0.00 | 0.00 | 0.00 | 85 | 978.7 |
| 20260506120404 | 53 | 14 | 8.7 | 21.7 | 0.00 | 0.00 | 0.00 | 85 | 978.6 |
| 20260506115604 | 53 | 11 | 6.1 | 12.2 | 0.00 | 0.00 | 0.00 | 85 | 978.5 |
| 20260506115204 | 53 | 11 | 5.2 | 14.8 | 0.00 | 0.00 | 0.00 | 85 | 978.4 |
| 20260506114804 | 53 | 10 | 3.5 | 14.8 | 0.00 | 0.00 | 0.00 | 85 | 978.5 |
| 20260506114404 | 53 | 12 | 9.6 | 14.8 | 0.00 | 0.00 | 0.00 | 85 | 978.5 |
| 20260506114005 | 53 | 26 | 5.2 | 13.0 | 0.00 | 0.00 | 0.00 | 84 | 978.4 |
| 20260506113604 | 53 | 25 | 6.1 | 13.0 | 0.00 | 0.00 | 0.00 | 84 | 978.4 |
| 20260506113204 | 54 | 17 | 2.6 | 13.0 | 0.00 | 0.00 | 0.00 | 84 | 978.4 |
| 20260506112804 | 54 | 15 | 6.1 | 13.0 | 0.00 | 0.00 | 0.00 | 83 | 978.4 |
| 20260506112404 | 54 | 29 | 6.1 | 13.0 | 0.00 | 0.00 | 0.00 | 83 | 978.5 |
| 20260506112004 | 54 | 26 | 3.5 | 9.6 | 0.00 | 0.00 | 0.00 | 81 | 978.5 |
| 20260506111604 | 54 | 18 | 2.6 | 8.7 | 0.00 | 0.00 | 0.00 | 82 | 978.5 |
| 20260506111204 | 54 | 7 | 3.5 | 8.7 | 0.00 | 0.00 | 0.00 | 83 | 978.4 |
| 20260506110404 | 53 | 34 | 3.5 | 12.2 | 0.00 | 0.00 | 0.00 | 83 | 978.3 |
| 20260506104803 | 53 | 24 | 2.6 | 15.6 | 0.00 | 0.00 | 0.00 | 85 | 978.5 |
| 20260506104404 | 53 | 30 | 5.2 | 15.6 | 0.00 | 0.00 | 0.00 | 84 | 978.4 |
| 20260506104004 | 52 | 19 | 5.2 | 12.2 | 0.00 | 0.00 | 0.00 | 84 | 978.4 |